Regional Weather Roundup
Issued by NWS

Home | Current Version | Previous Version | Graphics & Text | Print | Product List | Glossary On
Versions: 1 2 3 4 5 6 7 8 9 10 11 12 13 14 15 16 17 18 19 20 21 22 23 24 25 26 27 28 29 30 31 32 33 34 35 36 37 38 39 40 41 42 43 44 45 46 47 48 49 50
736
ASUS44 KJAN 210910
RWRMS

MISSISSIPPI HOURLY WEATHER ROUNDUP
NATIONAL WEATHER SERVICE JACKSON MS
400 AM CDT SUN SEP 21 2014

NOTE: "FAIR: INDICATES FEW OR NO CLOUDS BELOW 12,000 FEET WITH NO
SIGNIFICANT WEATHER AND/OR OBSTRUCTIONS TO VISIBILITY.

MSZ001>002-007>008-010>013-018>021-025>028-034>036-211000-
NORTHWEST MISSISSIPPI

CITY           SKY/WX    TMP DP  RH WIND       PRES   REMARKS
CLARKSDALE       N/A     68  68 100 CALM      30.01S
CLEVELAND      FAIR      69  68  97 CALM      30.00S
GREENWOOD      CLEAR     67  65  93 CALM      30.00F
GREENVILLE     CLEAR     69  66  90 CALM      29.99F
GRENADA        FAIR      64  64 100 CALM      30.01S
OLIVE BRANCH   CLEAR     66  66 100 S7        30.00S
OXFORD         FAIR      64  64 100 CALM      30.02F
TUNICA         SUNNY     68  64  88 S3        30.00F FOG
$$

MSZ003>006-009-014>017-022>024-029>033-037>039-211000-
NORTHEAST MISSISSIPPI

CITY           SKY/WX    TMP DP  RH WIND       PRES   REMARKS
COLUMBUS AFB   CLEAR     64  64 100 CALM      30.01F
CORINTH        FOG       64  63  94 CALM      29.99F VSB 1/4
GOLDN TRIANGLE CLEAR     66  61  82 CALM      30.03R
STARKVILLE     FAIR      63  61  94 CALM      30.01F
TUPELO         CLEAR     68  66  93 CALM      30.01S FOG
$$

MSZ040-058-211000-
CENTRAL MISSISSIPPI

CITY           SKY/WX    TMP DP  RH WIND       PRES   REMARKS
JACKSON INTL   CLEAR     65  64  97 CALM      30.02R
JACKSON HAWKNS CLEAR     70  66  87 CALM      30.02S
MERIDIAN KEY   CLEAR     63  61  93 CALM      30.02S
MERIDIAN NAS   CLEAR     63  61  93 NW5       30.02R
RAYMOND        FAIR      66  61  82 CALM      30.01S HAZE
VICKSBURG      CLEAR     69  67  93 CALM      30.00S
$$

MSZ059>079-211000-
SOUTH MISSISSIPPI

CITY           SKY/WX    TMP DP  RH WIND       PRES   REMARKS
BROOKHAVEN     FAIR      64  64 100 CALM      30.03S FOG
COLUMBIA       FAIR      63  63 100 CALM      30.00R FOG
HATTIESBURG    PTCLDY    65  64  97 NW3       30.01R
MCCOMB         CLEAR     67  65  93 CALM      30.01S
NATCHEZ        CLEAR     68  64  88 CALM      30.01S
PINE BELT      CLEAR    N/A N/A N/A CALM      30.02R
$$

MSZ080>082-211000-
COASTAL MISSISSIPPI

CITY           SKY/WX    TMP DP  RH WIND       PRES   REMARKS
BILOXI         CLEAR     71  66  84 NE8       29.98S
PASCAGOULA     PTCLDY    70  66  87 NE6       29.99R
GULFPORT       CLEAR     70  66  87 CALM      29.97F
$$



USA.gov is the U.S. government's official web portal to all federal, state and local government web resources and services.